Location: Demmingen
(48.6757°N, 10.4375°E)
Time: 10:13:11
(UTC+00:00)

NOSS 3-4 (C) - Pass Details

Date: 23 May 2024
Orbit: 814 x 1397 km, 63.4° (Epoch: 04 June)

Event Time Altitude Azimuth Distance (km) Brightness Sun altitude
Rises 00:34:15 0° 315° (NW) 3,800 6.9 -18.5°
Reaches altitude 10° 00:36:52 10° 308° (NW) 2,926 6.2 -18.3°
Maximum altitude 00:43:21 41° 241° (WSW) 1,651 4.3 -17.9°
Enters shadow 00:47:18 25° 189° (S) 2,296 4.8 -17.7°
